Weather in Tolmachevo

Russia / Novosibirsk Oblast     54°58′44″N   82°44′03″E
temp.,
°C
wind,
m/s
gust,
m/s
humid.,
%
clouds,
%
prec.,
mm/h
press.,
hPa
HPBL,
m
27 november, sat
sat2701:00−14ssw51393100 0.0 1034348
04:00−13sw51492100 0.0 1034457
07:00−13sw6149290 0.0 1034415
10:00−12sw61493100 0.0 1034462
13:00−10sw71593100 0.3 1033577
16:00−8sw81690100 0.3 1031657
19:00−7sw91790100 0.3 1030792
22:00−6sw91788100 0.1 1028768
28 november, sun
sun2801:00−6sw91788100 0.2 1027810
04:00−6sw81694100 0.6 1027791
07:00−6sw71592100 1.2 1028633
10:00−6sw61391100 0.1 1030529
13:00−6sw61390100 0.2 1031571
16:00−6sw61291100 0.1 1032521
19:00−6sw51193100 0.1 1034477
22:00−9sw489576 0.1 1036189
29 november, mon
mon2901:00−12sw389673 0.1 1036112
04:00−12ssw369697 0.0 103693
07:00−11ssw3793100 0.0 1036124
10:00−13ssw3793100 0.0 1036105
13:00−10ssw3892100 0.0 1034165
16:00−10ssw3991100 0.0 1033176
19:00−11ssw3991100 0.0 1033123
22:00−11ssw41086100 0.0 1031165
30 november, tue
tue3001:00−11ssw41189100 0.0 1030180
04:00−11ssw41092100 0.0 1029160
07:00−10ssw4109099 0.0 1028162
10:00−10ssw4108894 0.0 1028175
13:00−8ssw4108483 0.0 1028215
16:00−8ssw4108393 0.0 1027174
19:00−10ssw49845 0.0 1028118
22:00−13ssw35855 0.0 103055
1 december, wed
wed101:00−16ssw22875 0.0 103010
04:00−17s228866 0.0 103119
07:00−18s2294100 0.0 103120
10:00−14sse239741 0.0 103043
13:00−6s49886 0.0 1029285
16:00−7s37885 0.0 102799
19:00−8s49855 0.0 1026130
22:00−10ssw33905 0.0 102542